Location: Newark
(20.5800°N, 87.1197°W)
Time: 10:56:10
(UTC+00:00)

N. Korean satellite - Pass Details

Date: 05 August 2020
Orbit: 455 x 503 km, 97.2° (Epoch: 22 September)

Event Time Altitude Azimuth Distance (km) Brightness Sun altitude
Rises 10:26:08 0° 35° (NE) 2,511 11.3 -13.6°
Reaches altitude 10° 10:28:48 10° 58° (ENE) 1,642 10.7 -13.1°
Maximum altitude 10:31:02 16° 98° (E) 1,321 9.6 -12.6°
Drops below altitude 10° 10:33:17 10° 137° (SE) 1,656 9.5 -12.1°
Sets 10:35:59 0° 159° (SSE) 2,544 10.2 -11.5°
